Tulsa, OK

6:43 AM CST on February 24, 2018 (GMT -0600)
Tulsa International

Weather History for KTUL - December, 2012

Change the Weather History Date:

Thursday, December 27, 2012

  Actual Average Record
Temperature  
Mean Temperature 29 °F 38 °F  
Max Temperature 37 °F 47 °F 77 °F (1946)
Min Temperature 21 °F 28 °F 8 °F (1925)
Degree Days  
Heating Degree Days 36 27  
Month to date heating degree days 525 682  
Since 1 July heating degree days 1119 1318  
Moisture  
Dew Point 24 °F    
Average Humidity 74    
Maximum Humidity 84    
Minimum Humidity 64    
Precipitation  
Precipitation 0.00 in 0.07 in 2.76 in (2015)
Month to date precipitation 0.14 2.23  
Year to date precipitation 28.03 40.71  
Sea Level Pressure  
Sea Level Pressure 30.01 in    
Wind  
Wind Speed 9 mph (South)    
Max Wind Speed 22 mph    
Max Gust Speed 26 mph    
Visibility 10 miles    
Events      
T = Trace of Precipitation, MM = Missing Value Source: NWS Daily Summary

Daily Weather History Graph

Daily Weather History Graph

Search for Another Location

Airport or City:

Trip Planner

Search our weather history database for the weather conditions in past years. The results will help you decide how hot, cold, wet, or windy it might be!

Date:

Astronomy

Dec. 27, 2012 Rise Set
Actual Time 7:33 AM CST 5:16 PM CST
Civil Twilight 7:04 AM CST 5:45 PM CST
Nautical Twilight 6:32 AM CST 6:17 PM CST
Astronomical Twilight 6:01 AM CST 6:48 PM CST
Moon 4:59 PM CST (12/27) 6:46 AM CST (12/27)
Length of Visible Light 10h 40m
Length of Day
9h 42m
Full, 100% of the Moon is Illuminated
Dec 27
Full
Dec 28
Full
Jan 4
Last Quarter
Jan 11
New
Jan 18
First Quarter

Hourly Weather History & Observations

Time (CST) Temp. Windchill Dew Point Humidity Pressure Visibility Wind Dir Wind Speed Gust Speed Precip Events Conditions
12:53 AM 21.9 °F - 16.0 °F 78% 30.13 in 10.0 mi Calm Calm - N/A   Clear
1:53 AM 21.0 °F - 17.1 °F 85% 30.13 in 10.0 mi Calm Calm - N/A   Clear
2:53 AM 24.1 °F - 18.0 °F 77% 30.13 in 10.0 mi Calm Calm - N/A   Clear
3:53 AM 24.1 °F - 19.0 °F 81% 30.11 in 10.0 mi Calm Calm - N/A   Clear
4:53 AM 24.1 °F 19.7 °F 18.0 °F 77% 30.08 in 10.0 mi ENE 3.5 mph - N/A   Clear
5:53 AM 23.0 °F 13.1 °F 18.0 °F 81% 30.07 in 10.0 mi SSE 9.2 mph - N/A   Clear
6:53 AM 25.0 °F 19.3 °F 19.9 °F 81% 30.09 in 10.0 mi SSE 4.6 mph - N/A   Clear
7:53 AM 26.1 °F 15.0 °F 21.0 °F 81% 30.07 in 8.0 mi SSE 12.7 mph - N/A   Clear
8:53 AM 27.0 °F 16.7 °F 21.0 °F 78% 30.08 in 8.0 mi South 11.5 mph - N/A   Clear
9:53 AM 28.9 °F 17.7 °F 21.9 °F 75% 30.06 in 10.0 mi SSE 15.0 mph 23.0 mph N/A   Clear
10:53 AM 32.0 °F 21.2 °F 23.0 °F 69% 30.05 in 10.0 mi South 16.1 mph 24.2 mph N/A   Partly Cloudy
11:53 AM 34.0 °F 22.7 °F 23.0 °F 64% 30.01 in 10.0 mi South 19.6 mph - N/A   Partly Cloudy
12:53 PM 35.1 °F 24.5 °F 24.1 °F 64% 29.99 in 10.0 mi South 18.4 mph - N/A   Partly Cloudy
1:53 PM 36.0 °F 27.5 °F 25.0 °F 64% 29.96 in 10.0 mi SSE 12.7 mph 19.6 mph N/A   Partly Cloudy
2:53 PM 36.0 °F 26.7 °F 26.1 °F 67% 29.94 in 10.0 mi SSE 15.0 mph 21.9 mph N/A   Scattered Clouds
3:53 PM 36.0 °F 27.5 °F 26.1 °F 67% 29.94 in 10.0 mi SE 12.7 mph 19.6 mph N/A   Scattered Clouds
4:53 PM 36.0 °F 27.1 °F 27.0 °F 70% 29.94 in 10.0 mi South 13.8 mph 19.6 mph N/A   Scattered Clouds
5:53 PM 35.6 °F 28.0 °F 26.6 °F 70% 29.92 in 10.0 mi SE 10.4 mph - N/A   Scattered Clouds
6:53 PM 34.0 °F 27.2 °F 27.0 °F 75% 29.95 in 10.0 mi SSE 8.1 mph - N/A   Partly Cloudy
7:43 PM 33.8 °F 26.4 °F 26.6 °F 75% 29.95 in 10.0 mi South 9.2 mph - N/A   Mostly Cloudy
7:53 PM 34.0 °F 28.0 °F 27.0 °F 75% 29.97 in 10.0 mi South 6.9 mph - N/A   Overcast
8:48 PM 33.8 °F 25.8 °F 28.4 °F 81% 29.96 in 10.0 mi South 10.4 mph - N/A   Scattered Clouds
8:53 PM 34.0 °F 25.5 °F 28.0 °F 79% 29.98 in 10.0 mi South 11.5 mph - N/A   Scattered Clouds
9:48 PM 33.8 °F 28.6 °F 28.4 °F 81% 29.99 in 10.0 mi SSW 5.8 mph - N/A   Mostly Cloudy
9:53 PM 34.0 °F 28.8 °F 27.0 °F 75% 30.00 in 10.0 mi Variable 5.8 mph - N/A   Mostly Cloudy
10:35 PM 32.0 °F 24.8 °F 26.6 °F 80% 29.99 in 10.0 mi SSW 8.1 mph - N/A   Scattered Clouds
10:53 PM 32.0 °F 25.6 °F 27.0 °F 82% 29.99 in 10.0 mi SSW 6.9 mph - N/A   Partly Cloudy
11:15 PM 32.0 °F 25.6 °F 26.6 °F 80% 29.99 in 10.0 mi WSW 6.9 mph - N/A   Mostly Cloudy
11:53 PM 30.9 °F - 26.1 °F 82% 30.00 in 9.0 mi Calm Calm - N/A   Scattered Clouds